Lapse_Rate
7.0 6.9 6.9 6.8 6.7 6.6 6.5 6.4 6.3 6.3 6.3 6.4 6.4 6.6 6.5 6.3 6.4 6.4 6.2 6.4 6.6 6.5
7.0 7.0 7.0 6.8 6.7 6.6 6.4 6.3 6.2 6.2 6.2 6.2 6.2 6.3 6.5 6.2 6.3 6.2 6.3 6.3 6.4 6.4
7.0 7.1 7.0 7.0 6.9 6.7 6.5 6.5 6.5 6.4 6.3 6.2 6.2 6.2 6.4 6.5 6.5 6.4 6.5 6.4 6.4 6.6
7.1 7.1 7.0 6.9 6.9 6.8 6.7 6.6 6.6 6.6 6.6 6.6 6.7 6.7 6.9 7.1 7.1 7.3 7.5 7.4 7.2 6.9
7.0 7.0 6.9 7.0 7.1 7.0 7.0 6.8 6.8 7.0 7.1 7.1 7.1 7.3 7.3 7.4 7.5 7.5 7.6 7.8 7.7 7.3
7.0 7.0 7.1 7.2 7.2 7.2 7.1 7.1 7.1 7.2 7.3 7.1 7.2 7.5 7.6 7.8 8.1 7.9 8.0 7.8 7.6 7.8
7.2 7.2 7.2 7.2 7.2 7.2 7.2 7.1 7.1 7.4 7.4 7.4 7.4 7.2 7.4 7.8 7.7 7.8 7.2 7.0 7.2 7.1
7.6 7.4 7.3 7.3 7.3 7.3 7.2 7.3 7.4 7.6 7.6 7.5 7.5 7.1 7.1 6.9 6.9 6.7 6.6 6.8 7.1 6.9
8.0 7.8 7.7 7.4 7.3 7.5 7.6 7.5 7.6 7.7 7.7 7.4 7.1 7.1 6.7 6.6 6.3 6.3 6.0 5.6 5.8 5.5
8.4 8.3 8.1 7.9 7.6 7.6 7.5 7.4 7.6 7.5 7.3 7.1 7.2 7.2 6.9 6.7 6.4 6.2 5.9 5.5 5.0 4.8
8.4 8.5 8.3 8.1 8.0 7.7 7.6 7.6 7.4 7.3 7.4 7.2 7.0 6.9 7.0 6.8 6.7 6.2 5.7 5.2 5.2 5.1
8.6 8.3 8.3 8.4 8.0 7.7 7.5 7.7 7.4 7.6 6.8 6.9 6.5 6.8 6.7 6.7 6.3 6.2 5.6 5.3 5.3 5.4
8.8 8.7 8.7 8.6 8.3 8.0 7.9 7.7 8.0 8.0 7.3 6.8 6.9 6.4 6.6 6.7 6.3 5.9 5.4 5.5 5.6 5.7
9.5 9.1 9.1 8.8 8.6 8.4 8.1 7.8 7.7 7.9 8.0 7.3 6.9 6.6 6.3 6.6 6.4 5.8 5.5 5.5 5.5 5.3
Wind_Speed
16 12 12 13 11 10 10 9 10 8 8 8 7 7 6 6 5 3 2 4 5 5
15 16 13 13 13 11 10 9 9 9 9 7 6 7 6 6 5 4 3 4 3 4
16 16 15 14 14 13 12 12 10 10 9 8 7 7 6 6 5 5 4 5 3 4
16 17 16 15 15 15 14 12 11 11 10 10 9 8 8 8 7 8 6 6 4 3
17 16 17 17 17 15 15 14 13 11 11 10 10 10 9 9 7 8 7 7 5 3
19 18 18 18 17 16 15 14 14 13 12 12 12 11 10 9 9 8 7 7 5 4
21 20 19 18 17 17 15 14 13 13 13 13 12 11 10 9 8 8 7 4 4 5
20 19 18 15 15 15 14 13 13 14 12 12 11 9 10 9 9 7 4 6 5 5
16 15 15 14 14 13 14 13 13 12 11 11 8 9 5 7 7 6 7 6 6 4
17 16 16 14 14 14 15 14 13 10 8 9 8 6 5 5 7 7 6 6 5 5
16 16 14 15 15 15 13 10 5 3 2 1 2 4 5 5 6 7 5 4 4 3
16 15 15 16 16 14 13 14 15 14 9 9 2 6 3 4 6 6 6 6 6 5
17 16 17 17 16 16 16 16 11 15 16 9 6 8 5 3 7 6 7 8 7 8
17 18 17 16 15 15 16 15 13 11 11 5 8 7 8 7 6 6 6 6 6 9
Wind_Direction
213 215 219 213 231 218 226 220 216 205 219 213 211 218 224 249 256 288 245 275 306 287
209 217 215 224 211 225 230 233 226 228 228 223 221 230 228 256 270 262 255 283 255 287
206 209 217 216 223 223 227 223 243 227 235 233 229 239 235 257 232 244 266 291 320 299
207 208 213 217 218 221 224 224 223 227 233 231 236 238 238 242 243 244 248 218 228 256
209 210 211 217 217 218 222 220 222 223 226 232 234 234 241 246 242 250 235 243 206 203
207 209 216 215 220 215 219 221 221 216 223 225 227 233 246 243 250 240 232 232 217 190
210 209 213 216 215 216 212 217 221 225 222 229 233 240 243 245 237 236 235 224 224 214
207 209 209 207 211 212 209 209 218 222 224 227 230 230 224 228 232 234 212 208 226 217
203 203 201 197 196 199 202 205 211 220 215 217 230 136 184 266 241 209 203 218 213 215
197 199 193 185 181 190 196 197 204 206 209 222 229 87 149 200 229 203 220 216 228 262
203 196 188 179 180 185 190 191 148 98 75 126 79 118 154 195 241 220 227 235 225 247
190 191 184 183 178 174 160 109 104 93 12 307 150 73 99 242 222 240 228 224 233 239
183 180 181 178 178 163 146 135 147 139 163 177 149 38 32 280 257 234 237 206 221 99
182 175 167 170 165 152 152 149 149 133 119 123 106 77 62 39 252 284 279 279 282 104